[[{"header":{"parameterUnit":"m.s-1","parameterCategory":1,"la1":30.2991,"la2":30.254,"lo1":-89.0895,"lo2":-89.0444,"dy":0.0017,"dx":0.0017,"nx":28,"ny":28,"refTime":"2025-11-17T03:00:00:Z","depth":0,"parameterNumber":2,"parameterNumberName":"U-component_of_WINDS"},"data":[0,0,0,0,0,0,0,0,0,0,0,0,0,0,0,0,0,0,0,0,0,0,0,0,0,0,0,0,0,0,0,0,0,0,0,0,0,0,0,0,0,0,0,0,0,0,0,0,0,0,0,0,0,0,0,0,0,0,-1.4033,-1.4034,0,-1.4071,-1.4072,-1.4072,-1.4043,-1.4042,-1.4041,-1.404,-1.4077,-1.408,-1.4082,0,0,0,0,0,0,0,0,0,0,0,0,0,-1.3936,-1.3938,-1.4033,-1.4034,-1.4034,-1.4071,-1.4072,-1.4072,-1.4044,-1.4042,-1.4041,-1.4039,-1.4077,-1.4079,-1.4082,0,0,0,0,0,0,0,0,0,0,0,0,0,-1.3977,-1.3939,-1.4033,-1.4025,-1.4024,-1.4071,-1.4072,-1.4072,-1.4044,-1.4042,-1.404,-1.4038,-1.4076,-1.4079,-1.4082,-1.414,0,0,-1.4092,-1.4094,0,0,0,0,0,0,0,0,-1.3975,-1.398,-1.4025,-1.4025,-1.4025,-1.4051,-1.4051,-1.4095,-1.4044,-1.4036,-1.404,-1.4038,-1.407,-1.4074,-1.4085,-1.4141,-1.4143,-1.4092,-1.4094,-1.4096,-1.4097,0,0,0,0,0,0,0,-1.3972,-1.3979,-1.4048,-1.4026,-1.4026,-1.4019,-1.4022,-1.4059,-1.4063,-1.4037,-1.4035,-1.404,-1.4069,-1.4082,-1.4085,-1.4143,-1.4092,-1.4095,-1.4097,-1.4099,-1.4249,-1.4251,0,0,0,0,0,0,-1.397,-1.3976,-1.4047,-1.4049,-1.3995,-1.4022,-1.4026,-1.4044,-1.4063,-1.4064,-1.4041,-1.4038,-1.4077,-1.4082,-1.4087,-1.4154,-1.4096,-1.4099,-1.4101,-1.4247,-1.4249,-1.4252,0,0,0,0,0,0,-1.3968,-1.3976,-1.4046,-1.4012,-1.4021,-1.4026,-1.4046,-1.4046,-1.4058,-1.4066,-1.4067,-1.4053,-1.4076,-1.4082,-1.4127,-1.4155,-1.41,-1.4103,-1.4244,-1.4248,-1.425,-1.4291,0,0,0,0,0,0,-1.3965,-1.3976,-1.3998,-1.4013,-1.4023,-1.4085,-1.4048,-1.4048,-1.4064,-1.406,-1.4077,-1.4078,-1.4075,-1.4122,-1.413,-1.4159,-1.4106,-1.4242,-1.4246,-1.4249,-1.4287,-1.4295,-1.4302,0,0,0,0,0,-1.3962,-1.4007,-1.3999,-1.4008,-1.405,-1.4087,-1.4092,-1.4088,-1.4066,-1.4088,-1.4093,-1.4078,-1.4151,-1.4127,-1.4135,-1.4166,-1.424,-1.4245,-1.4249,-1.4284,-1.4293,-1.4302,0,0,0,0,0,0,-1.3994,-1.4009,-1.4,-1.4052,-1.4068,-1.4082,-1.4109,-1.4098,-1.4121,-1.4116,-1.411,-1.4114,-1.416,-1.4168,-1.414,-1.4222,-1.4192,-1.4199,-1.4215,-1.4225,-1.4232,-1.4229,-1.4108,0,0,0,0,0,-1.4008,-1.4037,-1.4048,-1.4093,-1.4102,-1.4104,-1.412,-1.4115,-1.4132,-1.4139,-1.4147,-1.4164,-1.4191,-1.4208,-1.4233,-1.4288,-1.4291,-1.4314,-1.4321,-1.4327,-1.4332,-1.4362,-1.4371,-1.4267,-1.4267,-1.4267,0,0,-1.4035,-1.4047,-1.4066,-1.41,-1.4112,-1.4142,-1.411,-1.4143,-1.4165,-1.4144,-1.4186,-1.4193,-1.4211,-1.4261,-1.4284,-1.4269,-1.4362,-1.4333,-1.4338,-1.434,-1.4367,-1.4377,-1.4386,-1.427,-1.4269,-1.4269,0,0,-1.4101,-1.4113,-1.4151,-1.4164,-1.4183,-1.4185,-1.4195,-1.421,-1.4214,-1.4257,-1.4241,-1.4268,-1.4314,-1.4327,-1.434,-1.4412,-1.4398,-1.4421,-1.4459,-1.4487,-1.4496,-1.4503,-1.4528,-1.4537,-1.4426,-1.4427,-1.4427,0,-1.4132,-1.4177,-1.4172,-1.4206,-1.4222,-1.4205,-1.4243,-1.4256,-1.4283,-1.4293,-1.4277,-1.4335,-1.4346,-1.4399,-1.4416,-1.4428,-1.4438,-1.4418,-1.4495,-1.4502,-1.4509,-1.4532,-1.4542,-1.4429,-1.4429,-1.4428,-1.4428,0,-1.4214,-1.4245,-1.4274,-1.43,-1.4319,-1.4356,-1.4357,-1.4376,-1.437,-1.4374,-1.4418,-1.4431,-1.4458,-1.4471,-1.4465,-1.4523,-1.4513,-1.4496,-1.4465,-1.4521,-1.4543,-1.4552,-1.4433,-1.4432,-1.4431,-1.443,0,0,-1.4299,-1.4323,-1.4334,-1.4346,-1.4366,-1.439,-1.4426,-1.4453,-1.447,-1.449,-1.4519,-1.4559,-1.4544,-1.4559,-1.4555,-1.458,-1.4635,-1.456,-1.456,-1.4573,-1.4699,-1.4711,-1.4721,-1.4627,-1.4629,-1.463,-1.4697,0,-1.4364,-1.4427,-1.4424,-1.4482,-1.4511,-1.4496,-1.4527,-1.4543,-1.4548,-1.4573,-1.4578,-1.4606,-1.4584,-1.4593,-1.4618,-1.4623,-1.466,-1.4619,-1.4654,-1.4655,-1.4648,-1.4733,-1.4745,-1.4807,-1.4706,-1.4707,-1.4708,0,-1.4448,-1.4471,-1.4532,-1.4549,-1.456,-1.4588,-1.4613,-1.4638,-1.4656,-1.4657,-1.4675,-1.4667,-1.4703,-1.4673,-1.4723,-1.4694,-1.4709,-1.4714,-1.4716,-1.4718,-1.4684,-1.4735,-1.4827,-1.4836,-1.4722,-1.4721,-1.472,0,-1.4502,-1.4548,-1.4591,-1.4601,-1.4622,-1.4642,-1.4652,-1.4668,-1.4685,-1.4707,-1.4718,-1.4744,-1.4758,-1.4778,-1.4778,-1.4756,-1.4828,-1.4798,-1.4829,-1.4829,-1.4843,-1.4842,-1.4937,-1.4856,-1.4855,-1.4855,-1.4855,0,-1.4575,-1.4612,-1.4615,-1.4641,-1.4683,-1.4681,-1.4722,-1.473,-1.4745,-1.4772,-1.4761,-1.4786,-1.4785,-1.4811,-1.4811,-1.4851,-1.4858,-1.486,-1.4859,-1.486,-1.4859,-1.4868,-1.4863,-1.4858,-1.4857,-1.4857,-1.4856,0,-1.4641,-1.4645,-1.469,-1.4707,-1.4712,-1.4742,-1.4756,-1.4781,-1.4785,-1.4819,-1.4827,-1.4834,-1.4864,-1.4866,-1.4901,-1.4901,-1.495,-1.4945,-1.4943,-1.4942,-1.4973,-1.4969,-1.5075,-1.5089,-1.5,-1.5001,-1.5001,0,-1.4686,-1.4715,-1.4735,-1.4752,-1.4763,-1.4792,-1.4809,-1.4808,-1.4827,-1.485,-1.4872,-1.4901,-1.4924,-1.4973,-1.498,-1.5007,-1.5002,-1.5037,-1.5005,-1.5005,-1.5001,-1.4998,-1.5001,-1.5042,-1.5043,-1.5044,-1.5045,0,-1.4765,-1.4766,-1.4791,-1.4818,-1.4839,-1.4859,-1.4879,-1.4894,-1.4895,-1.4916,-1.4947,-1.4965,-1.5001,-1.503,-1.5056,-1.5066,-1.5055,-1.5055,-1.5064,-1.5064,-1.5061,-1.5062,-1.4958,-1.5052,-1.5052,-1.5051,-1.5051,-1.505,-1.4821,-1.4846,-1.4864,-1.4893,-1.4907,-1.4926,-1.495,-1.4958,-1.4984,-1.5013,-1.5011,-1.5045,-1.5063,-1.5097,-1.5109,-1.5136,-1.5123,-1.5136,-1.5139,-1.5141,-1.5144,-1.5059,-1.5141,-1.514,-1.514,-1.514,-1.514,0,-1.4898,-1.4909,-1.4936,-1.4964,-1.4987,-1.4976,-1.4998,-1.5017,-1.5047,-1.5065,-1.5088,-1.5124,-1.5152,-1.5163,-1.519,-1.521,-1.5205,-1.5217,-1.5214,-1.5216,-1.5154,-1.5143,-1.5219,-1.5219,-1.5219,-1.5219,-1.5219,-1.5219,-1.4941,-1.4982,-1.4985,-1.5033,-1.5045,-1.5078,-1.5091,-1.5108,-1.5122,-1.5162,-1.5186,-1.5193,-1.5208,-1.5237,-1.5263,-1.5265,-1.5275,-1.5288,-1.5288,-1.5229,-1.5221,-1.5213,-1.5203,-1.529,-1.5291,-1.5348,-1.5349,-1.5349]},{"header":{"parameterUnit":"m.s-1","parameterCategory":1,"la1":30.2991,"la2":30.254,"lo1":-89.0895,"lo2":-89.0444,"dy":0.0017,"dx":0.0017,"nx":28,"ny":28,"refTime":"2025-11-17T03:00:00:Z","depth":0,"parameterNumber":3,"parameterNumberName":"V-component_of_WINDS"},"data":[0,0,0,0,0,0,0,0,0,0,0,0,0,0,0,0,0,0,0,0,0,0,0,0,0,0,0,0,0,0,0,0,0,0,0,0,0,0,0,0,0,0,0,0,0,0,0,0,0,0,0,0,0,0,0,0,0,0,-0.0999,-0.0999,0,-0.101,-0.101,-0.101,-0.1008,-0.1008,-0.1007,-0.1007,-0.1017,-0.1017,-0.1018,0,0,0,0,0,0,0,0,0,0,0,0,0,-0.0971,-0.0972,-0.0999,-0.0999,-0.0999,-0.101,-0.101,-0.101,-0.1008,-0.1008,-0.1007,-0.1007,-0.1017,-0.1017,-0.1018,0,0,0,0,0,0,0,0,0,0,0,0,0,-0.0983,-0.0972,-0.0999,-0.0999,-0.0999,-0.101,-0.101,-0.101,-0.1008,-0.1008,-0.1007,-0.1007,-0.1017,-0.1017,-0.1018,-0.1028,0,0,-0.102,-0.102,0,0,0,0,0,0,0,0,-0.0982,-0.0984,-0.0999,-0.0999,-0.0999,-0.1007,-0.1004,-0.1016,-0.1008,-0.1005,-0.1007,-0.1007,-0.1014,-0.1015,-0.1017,-0.1029,-0.1029,-0.102,-0.102,-0.1021,-0.1021,0,0,0,0,0,0,0,-0.0981,-0.0983,-0.1003,-0.0999,-0.0999,-0.0997,-0.0999,-0.1006,-0.1011,-0.1005,-0.1005,-0.1006,-0.1014,-0.1017,-0.1018,-0.1029,-0.102,-0.1021,-0.1021,-0.1021,-0.1046,-0.1046,0,0,0,0,0,0,-0.0981,-0.0983,-0.1003,-0.1004,-0.099,-0.0998,-0.1,-0.1005,-0.1011,-0.1011,-0.1006,-0.1006,-0.1016,-0.1017,-0.1018,-0.1029,-0.1021,-0.1021,-0.1022,-0.1046,-0.1046,-0.1047,0,0,0,0,0,0,-0.098,-0.0983,-0.1002,-0.0993,-0.0995,-0.0999,-0.1005,-0.1005,-0.1008,-0.1012,-0.1012,-0.1009,-0.1016,-0.1017,-0.1025,-0.1029,-0.1022,-0.1022,-0.1046,-0.1046,-0.1046,-0.1052,0,0,0,0,0,0,-0.0979,-0.0982,-0.0988,-0.0993,-0.0996,-0.1011,-0.1005,-0.1006,-0.101,-0.1009,-0.1014,-0.1015,-0.1015,-0.1024,-0.1026,-0.103,-0.1023,-0.1045,-0.1046,-0.1046,-0.1052,-0.1053,-0.1053,0,0,0,0,0,-0.0978,-0.0989,-0.0988,-0.099,-0.1003,-0.1011,-0.1013,-0.1014,-0.101,-0.1015,-0.1016,-0.1015,-0.1028,-0.1025,-0.1027,-0.1031,-0.1045,-0.1046,-0.1046,-0.1051,-0.1052,-0.1053,0,0,0,0,0,0,-0.0984,-0.099,-0.0989,-0.1002,-0.1006,-0.1011,-0.1017,-0.1015,-0.102,-0.102,-0.102,-0.1021,-0.1029,-0.1031,-0.1027,-0.104,-0.1036,-0.1037,-0.1039,-0.104,-0.1041,-0.1041,-0.1023,0,0,0,0,0,-0.0987,-0.0994,-0.0998,-0.1009,-0.1011,-0.1013,-0.1017,-0.1017,-0.1022,-0.1023,-0.1026,-0.1029,-0.1033,-0.1037,-0.1042,-0.1051,-0.1051,-0.1055,-0.1056,-0.1056,-0.1058,-0.106,-0.1062,-0.1048,-0.1048,-0.1048,0,0,-0.0993,-0.0997,-0.1002,-0.1011,-0.1014,-0.102,-0.1015,-0.1023,-0.1027,-0.1024,-0.1032,-0.1033,-0.1037,-0.1045,-0.1049,-0.1047,-0.1061,-0.1057,-0.1058,-0.1058,-0.1061,-0.1062,-0.1063,-0.1049,-0.1049,-0.1049,0,0,-0.1007,-0.1011,-0.102,-0.1023,-0.1027,-0.1028,-0.103,-0.1034,-0.1035,-0.1043,-0.104,-0.1044,-0.1053,-0.1055,-0.1057,-0.1067,-0.1065,-0.1068,-0.1074,-0.1077,-0.1078,-0.1079,-0.1081,-0.1082,-0.1069,-0.1069,-0.1069,0,-0.1014,-0.1025,-0.1025,-0.1031,-0.1034,-0.1031,-0.1039,-0.1041,-0.1047,-0.1049,-0.1046,-0.1055,-0.1057,-0.1065,-0.1067,-0.1069,-0.107,-0.1069,-0.1078,-0.1079,-0.1079,-0.1082,-0.1083,-0.107,-0.107,-0.107,-0.107,0,-0.1032,-0.1039,-0.1045,-0.105,-0.1053,-0.1061,-0.106,-0.1063,-0.1062,-0.1062,-0.1068,-0.107,-0.1074,-0.1076,-0.1075,-0.1082,-0.1081,-0.1078,-0.1074,-0.1081,-0.1083,-0.1084,-0.107,-0.107,-0.107,-0.107,0,0,-0.1053,-0.1056,-0.1058,-0.1059,-0.1062,-0.1067,-0.1072,-0.1076,-0.1078,-0.1081,-0.1085,-0.109,-0.1087,-0.1089,-0.1088,-0.109,-0.1096,-0.1087,-0.1087,-0.1088,-0.1103,-0.1105,-0.1106,-0.1094,-0.1095,-0.1095,-0.1102,0,-0.1067,-0.1078,-0.1077,-0.1087,-0.1092,-0.1087,-0.1091,-0.1093,-0.1092,-0.1095,-0.1094,-0.1098,-0.1094,-0.1094,-0.1096,-0.1095,-0.1099,-0.1095,-0.1097,-0.1097,-0.1097,-0.1108,-0.1111,-0.1118,-0.1103,-0.1103,-0.1103,0,-0.1086,-0.1089,-0.11,-0.1099,-0.1101,-0.1106,-0.1107,-0.1111,-0.1111,-0.111,-0.1111,-0.1108,-0.1111,-0.1106,-0.1109,-0.1106,-0.1106,-0.1105,-0.1106,-0.1106,-0.1101,-0.1108,-0.112,-0.1121,-0.1105,-0.1105,-0.1105,0,-0.11,-0.1106,-0.1113,-0.1114,-0.1114,-0.1116,-0.1116,-0.1116,-0.1118,-0.1118,-0.1119,-0.112,-0.1121,-0.112,-0.1117,-0.1114,-0.112,-0.1115,-0.1119,-0.1119,-0.1121,-0.1121,-0.1133,-0.1121,-0.1121,-0.1121,-0.1121,0,-0.1116,-0.1123,-0.1118,-0.1123,-0.1128,-0.1125,-0.1131,-0.113,-0.1129,-0.1131,-0.1127,-0.1129,-0.1124,-0.1125,-0.1122,-0.1124,-0.1125,-0.1123,-0.1122,-0.1124,-0.1124,-0.1125,-0.1124,-0.1121,-0.1121,-0.1121,-0.1121,0,-0.1133,-0.1131,-0.1137,-0.1136,-0.1135,-0.114,-0.1138,-0.114,-0.1138,-0.1141,-0.1141,-0.1138,-0.1138,-0.1134,-0.1134,-0.1132,-0.1135,-0.1134,-0.1136,-0.1135,-0.1138,-0.1138,-0.1152,-0.1153,-0.1139,-0.114,-0.114,0,-0.1144,-0.1149,-0.1147,-0.1148,-0.1149,-0.1151,-0.1152,-0.1147,-0.1148,-0.1147,-0.1149,-0.1149,-0.1149,-0.1149,-0.1146,-0.1145,-0.1143,-0.1147,-0.1143,-0.1143,-0.1142,-0.1142,-0.1142,-0.1149,-0.1149,-0.1149,-0.1149,0,-0.1164,-0.1161,-0.1164,-0.1164,-0.1165,-0.1165,-0.1165,-0.1166,-0.116,-0.1161,-0.1162,-0.1161,-0.116,-0.1159,-0.1157,-0.1155,-0.1151,-0.115,-0.1151,-0.1153,-0.1154,-0.1153,-0.1138,-0.115,-0.115,-0.115,-0.115,-0.115,-0.1178,-0.1181,-0.118,-0.1181,-0.118,-0.1179,-0.1181,-0.1178,-0.1178,-0.1177,-0.1173,-0.1174,-0.117,-0.1167,-0.1165,-0.1164,-0.1161,-0.1163,-0.1163,-0.1163,-0.1164,-0.1153,-0.1163,-0.1163,-0.1163,-0.1163,-0.1163,0,-0.1197,-0.1195,-0.1196,-0.1195,-0.1195,-0.119,-0.1189,-0.1189,-0.119,-0.1187,-0.1186,-0.1185,-0.1184,-0.1179,-0.1176,-0.1176,-0.1174,-0.1175,-0.1176,-0.1175,-0.1166,-0.1166,-0.1177,-0.1177,-0.1177,-0.1177,-0.1177,-0.1177,-0.1207,-0.1211,-0.1208,-0.121,-0.1208,-0.1209,-0.1208,-0.1206,-0.1203,-0.1203,-0.1201,-0.1198,-0.1193,-0.119,-0.1187,-0.1186,-0.1185,-0.1187,-0.1185,-0.1177,-0.1176,-0.1175,-0.1174,-0.1187,-0.1187,-0.1193,-0.1193,-0.1193]}]]